Change the Weather History Date:

Sunday, February 5, 2012

  Actual Average Record
Temperature  
Mean Temperature 26 °F -  
Max Temperature 36 °F 33 °F 59 °F (1962)
Min Temperature 17 °F 15 °F -5 °F (1929)
Degree Days  
Heating Degree Days 38    
Moisture  
Dew Point 8 °F    
Average Humidity 46    
Maximum Humidity 71    
Minimum Humidity 29    
Precipitation  
Precipitation 0.00 in - - ()
Sea Level Pressure  
Sea Level Pressure 30.13 in    
Wind  
Wind Speed 4 mph (WNW)    
Max Wind Speed 8 mph    
Max Gust Speed -    
Visibility 10 miles    
Events      
Averages and records for this station are not official NWS values.
T = Trace of Precipitation, MM = Missing Value Source: NWS Daily Summary

Daily Weather History Graph

Daily Weather History Graph

Search for Another Location

Airport or City:

Trip Planner

Search our weather history database for the weather conditions in past years. The results will help you decide how hot, cold, wet, or windy it might be!

Date:

Astronomy

Feb. 05, 2012 Rise Set
Actual Time 6:55 AM EST 5:02 PM EST
Civil Twilight 6:25 AM EST 5:32 PM EST
Nautical Twilight 5:51 AM EST 6:05 PM EST
Astronomical Twilight 5:18 AM EST 6:38 PM EST
Moon 2:56 PM EST (2/5) 5:05 AM EST (2/5)
Length of Visible Light 11h 06m
Length of Day
10h 07m
Waxing Gibbous, 94% of the Moon is Illuminated
Feb 5
Waxing Gibbous
Feb 7
Full
Feb 14
Last Quarter
Feb 21
New
Feb 29
First Quarter

Hourly Weather History & Observations

Time (EST) Temp. Windchill Dew Point Humidity Pressure Visibility Wind Dir Wind Speed Gust Speed Precip Events Conditions
12:54 AM 24.1 °F 18.2 °F 7.0 °F 48% 30.14 in 10.0 mi NNW 4.6 mph - N/A   Clear
1:54 AM 23.0 °F 17.0 °F 7.0 °F 50% 30.15 in 10.0 mi North 4.6 mph - N/A   Clear
2:54 AM 21.0 °F - 8.1 °F 57% 30.16 in 10.0 mi Calm Calm - N/A   Clear
3:54 AM 21.0 °F 11.4 °F 8.1 °F 57% 30.16 in 10.0 mi NNW 8.1 mph - N/A   Clear
4:54 AM 19.9 °F 13.4 °F 8.1 °F 60% 30.15 in 10.0 mi NNW 4.6 mph - N/A   Clear
5:54 AM 19.9 °F - 9.0 °F 62% 30.17 in 10.0 mi Calm Calm - N/A   Clear
6:54 AM 17.1 °F - 9.0 °F 71% 30.18 in 10.0 mi Calm Calm - N/A   Clear
7:54 AM 21.0 °F - 10.0 °F 63% 30.20 in 10.0 mi Calm Calm - N/A   Clear
8:54 AM 24.1 °F 17.0 °F 10.0 °F 55% 30.18 in 10.0 mi North 5.8 mph - N/A   Clear
9:54 AM 26.1 °F - 9.0 °F 49% 30.19 in 10.0 mi Calm Calm - N/A   Clear
10:54 AM 28.9 °F 25.2 °F 9.0 °F 43% 30.17 in 10.0 mi Variable 3.5 mph - N/A   Clear
11:54 AM 30.9 °F - 7.0 °F 37% 30.14 in 10.0 mi Calm Calm - N/A   Clear
12:54 PM 32.0 °F 27.5 °F 7.0 °F 35% 30.12 in 10.0 mi WSW 4.6 mph - N/A   Clear
1:54 PM 35.1 °F 29.3 °F 6.1 °F 30% 30.10 in 10.0 mi WSW 6.9 mph - N/A   Clear
2:54 PM 36.0 °F 30.3 °F 6.1 °F 29% 30.09 in 10.0 mi WSW 6.9 mph - N/A   Clear
3:54 PM 36.0 °F 31.1 °F 7.0 °F 30% 30.08 in 10.0 mi WSW 5.8 mph - N/A   Clear
4:54 PM 35.1 °F - 7.0 °F 31% 30.08 in 10.0 mi Calm Calm - N/A   Clear
5:54 PM 32.0 °F - 8.1 °F 37% 30.09 in 10.0 mi Calm Calm - N/A   Clear
6:54 PM 32.0 °F 28.7 °F 8.1 °F 37% 30.10 in 10.0 mi West 3.5 mph - N/A   Clear
7:54 PM 30.0 °F 24.1 °F 9.0 °F 41% 30.11 in 10.0 mi WNW 5.8 mph - N/A   Clear
8:54 PM 30.0 °F 24.1 °F 10.0 °F 43% 30.11 in 10.0 mi WNW 5.8 mph - N/A   Clear
9:54 PM 28.9 °F 23.9 °F 10.9 °F 47% 30.10 in 10.0 mi West 4.6 mph - N/A   Clear
10:54 PM 28.0 °F 20.8 °F 10.9 °F 49% 30.10 in 10.0 mi West 6.9 mph - N/A   Clear
11:54 PM 27.0 °F 19.5 °F 12.0 °F 53% 30.08 in 10.0 mi SW 6.9 mph - N/A   Clear